START_TIME,STEP,MOV.,H8,t_acc.,H43,t_acc.,M25,t_acc.,H9,t_acc.
1979-07-16 12:00:29.670 ,0,0,0.,12.0,0.,12.0,0.,12.0,0.,12.0
1979-07-16 12:00:41.670 ,0,0,0.,12.0,0.,12.0,0.,12.0,0.,12.0
1979-07-16 12:00:53.670 ,1,0,0.,12.0,0.,12.0,0.,12.0,0.,12.0
1979-07-16 12:01:05.670 ,1,0,0.,12.0,0.,12.0,0.,12.0,0.,12.0
1979-07-16 12:01:17.670 ,1,0,,0,,0,,0,,0
1979-07-16 12:01:29.670 ,1,0,0.,12.0,0.,12.0,0.,12.0,0.,12.0
1979-07-16 12:01:41.670 ,2,0,0.,12.0,0.,12.0,0.,12.0,0.,12.0
1979-07-16 12:01:53.670 ,2,0,0.,12.0,0.,12.0,0.,12.0,0.,12.0
1979-07-16 12:02:05.670 ,2,0,0.,12.0,0.,12.0,0.,12.0,0.,12.0
1979-07-16 12:02:17.670 ,2,0,0.,12.0,0.,12.0,0.,12.0,0.,12.0
1979-07-16 12:02:29.670 ,3,0,0.,12.0,0.,12.0,0.,12.0,0.,12.0
1979-07-16 12:02:41.670 ,3,0,0.,12.0,0.,12.0,0.,12.0,0.,12.0
1979-07-16 12:02:53.670 ,3,0,0.,12.0,0.,12.0,0.,12.0,0.,12.0
1979-07-16 12:03:05.670 ,3,0,0.,12.0,0.,12.0,0.,12.0,0.,12.0
1979-07-16 12:03:17.670 ,4,0,0.,12.0,0.,12.0,0.,12.0,0.,12.0
1979-07-16 12:03:29.670 ,4,0,0.,12.0,0.,12.0,0.,12.0,0.,12.0
1979-07-16 12:03:41.670 ,4,0,0.,12.0,0.,12.0,0.,12.0,0.,12.0
1979-07-16 12:03:53.670 ,4,0,0.,12.0,0.,12.0,0.,12.0,0.,12.0
1979-07-16 12:04:05.670 ,5,0,0.,12.0,0.,12.0,0.,12.0,0.,12.0
1979-07-16 12:04:17.670 ,5,0,0.,12.0,0.,12.0,0.,12.0,0.,12.0
1979-07-16 12:04:29.670 ,5,0,0.,12.0,0.,12.0,0.,12.0,0.,12.0
1979-07-16 12:04:41.670 ,5,0,0.,12.0,0.,12.0,0.,12.0,0.,12.0
1979-07-16 12:04:53.670 ,6,0,0.,12.0,0.,12.0,0.,12.0,0.,12.0
1979-07-16 12:05:05.670 ,6,0,0.,12.0,0.,12.0,0.,12.0,0.,12.0
1979-07-16 12:05:17.670 ,6,0,0.,12.0,0.,12.0,0.,12.0,0.,12.0
1979-07-16 12:05:29.670 ,6,0,0.,12.0,0.,12.0,0.,12.0,0.,12.0
1979-07-16 12:05:41.670 ,7,0,0.,12.0,0.,12.0,0.,12.0,0.,12.0
1979-07-16 12:05:53.670 ,7,0,0.,12.0,0.,12.0,0.,12.0,0.,12.0
1979-07-16 12:06:05.670 ,7,0,0.,12.0,0.,12.0,0.,12.0,0.,12.0
1979-07-16 12:06:17.670 ,7,0,0.,12.0,0.,12.0,0.,12.0,0.,12.0
1979-07-16 12:06:29.670 ,7,0,0.,12.0,0.,12.0,0.,12.0,0.,12.0
1979-07-16 12:06:41.670 ,7,0,0.,12.0,0.,12.0,0.,12.0,0.,12.0
1979-07-16 12:06:53.670 ,7,0,0.,12.0,0.,12.0,0.,12.0,0.,12.0
1979-07-16 12:07:05.670 ,7,0,0.,12.0,0.,12.0,0.,12.0,0.,12.0
1979-07-16 12:07:17.670 ,6,0,0.,12.0,0.,12.0,0.,12.0,0.,12.0
1979-07-16 12:07:29.670 ,6,0,0.,12.0,0.,12.0,0.,12.0,0.,12.0
1979-07-16 12:07:41.670 ,6,0,0.,12.0,0.,12.0,0.,12.0,0.,12.0
1979-07-16 12:07:53.670 ,6,0,0.,12.0,0.,12.0,0.,12.0,0.,12.0
1979-07-16 12:09:41.670 ,0,0,0.,12.0,0.,12.0,0.,12.0,0.,12.0
1979-07-16 12:09:53.670 ,0,0,0.,12.0,0.,12.0,0.,12.0,0.,12.0
1979-07-16 12:10:05.670 ,0,0,0.,12.0,0.,12.0,0.,12.0,0.,12.0
1979-07-16 12:10:17.670 ,0,0,0.,12.0,0.,12.0,0.,12.0,0.,12.0
1979-07-16 12:10:29.670 ,2,0,0.,12.0,0.,12.0,0.,12.0,0.,12.0
1979-07-16 12:10:41.670 ,2,0,0.,12.0,0.,12.0,0.,12.0,0.,12.0
1979-07-16 12:10:53.670 ,2,0,0.,12.0,0.,12.0,0.,12.0,0.,12.0
1979-07-16 12:11:05.670 ,2,0,0.,12.0,0.,12.0,0.,12.0,0.,12.0
1979-07-16 12:12:05.670 ,0,0,0.,12.0,0.,12.0,0.,12.0,0.,12.0
1979-07-16 12:12:17.670 ,0,0,0.,12.0,0.,12.0,0.,12.0,0.,12.0
1979-07-16 12:12:29.670 ,0,0,0.,12.0,0.,12.0,0.,12.0,0.,12.0
1979-07-16 12:12:41.670 ,0,0,0.,12.0,0.,12.0,0.,12.0,0.,12.0
1979-07-16 12:12:53.670 ,0,0,0.,12.0,0.,12.0,0.,12.0,0.,12.0
1979-07-16 12:13:05.670 ,0,0,0.,12.0,0.,12.0,0.,12.0,0.,12.0
1979-07-16 12:13:17.670 ,0,0,0.,12.0,0.,12.0,0.,12.0,0.,12.0
1979-07-16 12:13:29.670 ,0,0,0.,12.0,0.,12.0,0.,12.0,0.,12.0
1979-07-16 12:13:41.670 ,1,0,0.,12.0,0.,12.0,0.,12.0,0.,12.0
1979-07-16 12:13:53.670 ,1,0,0.,12.0,0.,12.0,0.,12.0,0.,12.0
1979-07-16 12:14:05.670 ,1,0,0.,12.0,0.,12.0,0.,12.0,0.,12.0
1979-07-16 12:14:17.670 ,1,0,0.,12.0,0.,12.0,0.,12.0,0.,12.0
1979-07-16 12:15:17.670 ,0,0,0.,12.0,0.,12.0,0.,12.0,0.,12.0
1979-07-16 12:15:29.670 ,0,0,0.,12.0,0.,12.0,0.,12.0,0.,12.0
1979-07-16 12:15:41.670 ,0,0,0.,12.0,0.,12.0,0.,12.0,0.,12.0
1979-07-16 12:15:53.670 ,0,0,0.,12.0,0.,12.0,0.,12.0,0.,12.0
1979-07-16 12:16:05.670 ,4,0,0.,12.0,0.,12.0,0.,12.0,0.,12.0
1979-07-16 12:16:17.670 ,4,0,0.,12.0,0.,12.0,0.,12.0,0.,12.0
1979-07-16 12:16:29.670 ,4,0,0.,12.0,0.,12.0,0.,12.0,0.,12.0
1979-07-16 12:16:41.670 ,4,0,0.,12.0,0.,12.0,0.,12.0,0.,12.0
1979-07-16 12:16:53.670 ,5,0,0.,12.0,0.,12.0,0.,12.0,0.,12.0
1979-07-16 12:17:05.670 ,5,0,0.,12.0,0.,12.0,0.,12.0,0.,12.0
1979-07-16 12:17:17.670 ,5,0,0.,12.0,0.,12.0,0.,12.0,0.,12.0
1979-07-16 12:17:29.670 ,5,0,1.,12.0,0.,12.0,0.,12.0,0.,12.0
1979-07-16 12:17:41.670 ,6,0,0.,12.0,0.,12.0,0.,12.0,0.,12.0
1979-07-16 12:17:53.670 ,6,0,0.,12.0,0.,12.0,0.,12.0,0.,12.0
1979-07-16 12:18:05.670 ,6,0,0.,12.0,0.,12.0,0.,12.0,0.,12.0
1979-07-16 12:18:17.670 ,6,0,0.,12.0,0.,12.0,0.,12.0,0.,12.0
1979-07-16 12:18:29.670 ,7,0,0.,12.0,0.,12.0,0.,12.0,0.,12.0
1979-07-16 12:18:41.670 ,7,0,0.,12.0,0.,12.0,0.,12.0,0.,12.0
1979-07-16 12:18:53.670 ,7,0,0.,12.0,0.,12.0,0.,12.0,0.,12.0
1979-07-16 12:19:05.670 ,7,0,0.,12.0,0.,12.0,0.,12.0,0.,12.0
1979-07-16 12:19:17.670 ,3,1,0.,12.0,0.,12.0,0.,12.0,0.,12.0
1979-07-16 12:19:29.670 ,3,1,0.,12.0,0.,12.0,0.,12.0,0.,12.0
1979-07-16 12:19:41.670 ,0,1,0.,12.0,0.,12.0,0.,12.0,0.,12.0
1979-07-16 12:19:53.670 ,0,1,0.,12.0,0.,12.0,0.,12.0,0.,12.0
1979-07-16 12:20:05.670 ,4,1,0.,12.0,0.,12.0,0.,12.0,0.,12.0
1979-07-16 12:20:17.670 ,4,1,0.,12.0,0.,12.0,0.,12.0,0.,12.0
1979-07-16 12:20:29.670 ,7,1,0.,12.0,0.,12.0,0.,12.0,0.,12.0
1979-07-16 12:20:41.670 ,7,1,0.,12.0,0.,12.0,0.,12.0,0.,12.0
1979-07-16 12:20:53.670 ,3,1,0.,12.0,0.,12.0,0.,12.0,0.,12.0
1979-07-16 12:21:05.670 ,3,1,0.,12.0,0.,12.0,0.,12.0,0.,12.0
1979-07-16 12:21:17.670 ,0,1,0.,12.0,0.,12.0,0.,12.0,0.,12.0
1979-07-16 12:21:29.670 ,0,1,0.,12.0,0.,12.0,0.,12.0,0.,12.0
1979-07-16 12:21:41.670 ,4,1,0.,12.0,0.,12.0,0.,12.0,0.,12.0
1979-07-16 12:21:53.670 ,4,1,0.,12.0,0.,12.0,0.,12.0,0.,12.0
1979-07-16 12:22:05.670 ,7,1,0.,12.0,0.,12.0,0.,12.0,0.,12.0
1979-07-16 12:22:17.670 ,7,1,0.,12.0,0.,12.0,0.,12.0,0.,12.0
1979-07-16 12:22:29.670 ,3,1,0.,12.0,0.,12.0,0.,12.0,0.,12.0
1979-07-16 12:22:41.670 ,3,1,0.,12.0,0.,12.0,0.,12.0,0.,12.0
1979-07-16 12:22:53.670 ,0,1,1.,12.0,0.,12.0,0.,12.0,0.,12.0
1979-07-16 12:23:05.670 ,0,1,0.,12.0,0.,12.0,0.,12.0,0.,12.0
1979-07-16 12:23:17.670 ,4,1,0.,12.0,0.,12.0,0.,12.0,0.,12.0
1979-07-16 12:23:29.670 ,4,1,0.,12.0,0.,12.0,0.,12.0,0.,12.0
1979-07-16 12:23:41.670 ,7,1,0.,12.0,0.,12.0,0.,12.0,0.,12.0
1979-07-16 12:23:53.670 ,7,1,0.,12.0,0.,12.0,0.,12.0,0.,12.0
1979-07-16 12:24:05.670 ,3,1,0.,12.0,0.,12.0,0.,12.0,0.,12.0
1979-07-16 12:24:17.670 ,3,1,0.,12.0,0.,12.0,0.,12.0,0.,12.0
1979-07-16 12:24:29.670 ,0,1,0.,12.0,0.,12.0,0.,12.0,0.,12.0
1979-07-16 12:24:41.670 ,0,1,0.,12.0,0.,12.0,0.,12.0,0.,12.0
1979-07-16 12:24:53.670 ,4,1,0.,12.0,0.,12.0,0.,12.0,0.,12.0
1979-07-16 12:25:05.670 ,4,1,0.,12.0,0.,12.0,0.,12.0,0.,12.0
1979-07-16 12:25:17.670 ,7,1,0.,12.0,0.,12.0,0.,12.0,0.,12.0
1979-07-16 12:25:29.670 ,7,1,0.,12.0,0.,12.0,0.,12.0,0.,12.0
1979-07-16 12:25:41.670 ,3,1,0.,12.0,0.,12.0,0.,12.0,0.,12.0
1979-07-16 12:25:53.670 ,3,1,0.,12.0,0.,12.0,0.,12.0,0.,12.0
1979-07-16 12:26:05.670 ,0,1,1.,12.0,0.,12.0,0.,12.0,0.,12.0
1979-07-16 12:26:17.670 ,0,1,0.,12.0,0.,12.0,0.,12.0,0.,12.0
1979-07-16 12:26:29.670 ,4,1,0.,12.0,0.,12.0,0.,12.0,0.,12.0
1979-07-16 12:26:41.670 ,4,1,0.,12.0,0.,12.0,0.,12.0,0.,12.0
1979-07-16 12:26:53.670 ,7,1,0.,12.0,0.,12.0,0.,12.0,0.,12.0
1979-07-16 12:27:05.670 ,7,1,0.,12.0,0.,12.0,0.,12.0,0.,12.0
1979-07-16 12:27:17.670 ,3,1,0.,12.0,0.,12.0,0.,12.0,0.,12.0
1979-07-16 12:27:29.670 ,3,1,0.,12.0,0.,12.0,0.,12.0,0.,12.0
1979-07-16 12:27:41.670 ,0,1,0.,12.0,0.,12.0,0.,12.0,0.,12.0
1979-07-16 12:27:53.670 ,0,1,0.,12.0,0.,12.0,0.,12.0,0.,12.0
1979-07-16 12:28:05.670 ,4,1,0.,12.0,0.,12.0,0.,12.0,0.,12.0
1979-07-16 12:28:17.670 ,4,1,0.,12.0,0.,12.0,0.,12.0,0.,12.0
1979-07-16 12:28:29.670 ,7,1,0.,12.0,0.,12.0,0.,12.0,0.,12.0
1979-07-16 12:28:41.670 ,7,1,0.,12.0,0.,12.0,0.,12.0,0.,12.0
1979-07-16 12:28:53.670 ,3,1,0.,12.0,0.,12.0,0.,12.0,0.,12.0
1979-07-16 12:29:05.670 ,3,1,0.,12.0,0.,12.0,0.,12.0,0.,12.0
1979-07-16 12:29:17.670 ,0,1,0.,12.0,0.,12.0,0.,12.0,0.,12.0
1979-07-16 12:29:29.670 ,0,1,0.,12.0,0.,12.0,0.,12.0,0.,12.0
1979-07-16 12:29:41.670 ,0,0,0.,12.0,0.,12.0,0.,12.0,0.,12.0
1979-07-16 12:29:53.670 ,0,0,0.,12.0,0.,12.0,0.,12.0,0.,12.0
1979-07-16 12:30:05.670 ,0,0,0.,12.0,0.,12.0,0.,12.0,0.,12.0
1979-07-16 12:30:17.670 ,0,0,0.,12.0,0.,12.0,0.,12.0,0.,12.0
1979-07-16 12:30:29.670 ,5,0,0.,12.0,0.,12.0,0.,12.0,0.,12.0
1979-07-16 12:30:41.670 ,5,0,0.,12.0,0.,12.0,0.,12.0,0.,12.0
1979-07-16 12:30:53.670 ,5,0,0.,12.0,0.,12.0,0.,12.0,0.,12.0
1979-07-16 12:31:05.670 ,5,0,0.,12.0,0.,12.0,0.,12.0,0.,12.0
1979-07-16 12:31:17.670 ,4,0,0.,12.0,0.,12.0,0.,12.0,0.,12.0
1979-07-16 12:31:29.670 ,4,0,0.,12.0,0.,12.0,0.,12.0,0.,12.0
1979-07-16 12:31:41.670 ,4,0,0.,12.0,0.,12.0,0.,12.0,0.,12.0
1979-07-16 12:31:53.670 ,4,0,0.,12.0,0.,12.0,0.,12.0,0.,12.0
1979-07-16 12:32:05.670 ,3,0,0.,12.0,0.,12.0,0.,12.0,0.,12.0
1979-07-16 12:32:17.670 ,3,0,0.,12.0,0.,12.0,0.,12.0,0.,12.0
1979-07-16 12:32:29.670 ,3,0,0.,12.0,0.,12.0,0.,12.0,0.,12.0
1979-07-16 12:32:41.670 ,3,0,0.,12.0,0.,12.0,0.,12.0,0.,12.0
1979-07-16 12:32:53.670 ,2,0,0.,12.0,0.,12.0,0.,12.0,0.,12.0
1979-07-16 12:33:05.670 ,2,0,0.,12.0,0.,12.0,0.,12.0,0.,12.0
1979-07-16 12:33:17.670 ,2,0,0.,12.0,0.,12.0,0.,12.0,0.,12.0
1979-07-16 12:33:29.670 ,2,0,0.,12.0,0.,12.0,0.,12.0,0.,12.0
1979-07-16 12:33:41.670 ,1,0,0.,12.0,0.,12.0,0.,12.0,0.,12.0
1979-07-16 12:33:53.670 ,1,0,0.,12.0,0.,12.0,0.,12.0,0.,12.0
1979-07-16 12:34:05.670 ,1,0,1.,12.0,0.,12.0,0.,12.0,0.,12.0
1979-07-16 12:34:17.670 ,1,0,0.,12.0,0.,12.0,0.,12.0,0.,12.0
1979-07-16 12:34:29.670 ,0,0,0.,12.0,0.,12.0,0.,12.0,0.,12.0
1979-07-16 12:34:41.670 ,0,0,0.,12.0,0.,12.0,0.,12.0,0.,12.0
1979-07-16 12:34:53.670 ,0,0,0.,12.0,0.,12.0,0.,12.0,0.,12.0
1979-07-16 12:35:05.670 ,0,0,0.,12.0,0.,12.0,0.,12.0,0.,12.0
1979-07-16 12:35:17.670 ,0,0,0.,12.0,0.,12.0,0.,12.0,0.,12.0
1979-07-16 12:35:29.670 ,0,0,1.,12.0,0.,12.0,0.,12.0,0.,12.0
1979-07-16 12:35:41.670 ,0,0,0.,12.0,0.,12.0,0.,12.0,0.,12.0
1979-07-16 12:35:53.670 ,0,0,0.,12.0,0.,12.0,0.,12.0,0.,12.0
1979-07-16 12:36:05.670 ,1,0,0.,12.0,0.,12.0,0.,12.0,0.,12.0
1979-07-16 12:36:17.670 ,1,0,0.,12.0,0.,12.0,0.,12.0,0.,12.0
1979-07-16 12:36:29.670 ,1,0,0.,12.0,0.,12.0,0.,12.0,0.,12.0
1979-07-16 12:36:41.670 ,1,0,2.,12.0,0.,12.0,0.,12.0,0.,12.0
1979-07-16 12:36:53.670 ,2,0,0.,12.0,0.,12.0,0.,12.0,0.,12.0
1979-07-16 12:37:05.670 ,2,0,0.,12.0,0.,12.0,0.,12.0,0.,12.0
1979-07-16 12:37:17.670 ,2,0,0.,12.0,0.,12.0,0.,12.0,0.,12.0
1979-07-16 12:37:29.670 ,2,0,0.,12.0,0.,12.0,0.,12.0,0.,12.0
1979-07-16 12:37:41.670 ,3,0,0.,12.0,0.,12.0,0.,12.0,0.,12.0
1979-07-16 12:37:53.670 ,3,0,0.,12.0,0.,12.0,0.,12.0,0.,12.0
1979-07-16 12:38:05.670 ,3,0,0.,12.0,0.,12.0,0.,12.0,0.,12.0
1979-07-16 12:38:17.670 ,3,0,0.,12.0,0.,12.0,0.,12.0,0.,12.0
1979-07-16 12:38:29.670 ,4,0,0.,12.0,0.,12.0,0.,12.0,0.,12.0
1979-07-16 12:38:41.670 ,4,0,0.,12.0,0.,12.0,0.,12.0,0.,12.0
1979-07-16 12:38:53.670 ,4,0,0.,12.0,0.,12.0,0.,12.0,0.,12.0
1979-07-16 12:39:05.670 ,4,0,0.,12.0,0.,12.0,0.,12.0,0.,12.0
1979-07-16 12:39:17.670 ,5,0,0.,12.0,0.,12.0,0.,12.0,0.,12.0
1979-07-16 12:39:29.670 ,5,0,0.,12.0,0.,12.0,0.,12.0,0.,12.0
1979-07-16 12:39:41.670 ,5,0,0.,12.0,0.,12.0,0.,12.0,0.,12.0
1979-07-16 12:39:53.670 ,5,0,0.,12.0,0.,12.0,0.,12.0,0.,12.0
1979-07-16 12:40:05.670 ,6,0,0.,12.0,0.,12.0,0.,12.0,0.,12.0
1979-07-16 12:40:17.670 ,6,0,0.,12.0,0.,12.0,0.,12.0,0.,12.0
1979-07-16 12:40:29.670 ,6,0,0.,12.0,0.,12.0,0.,12.0,0.,12.0
1979-07-16 12:40:41.670 ,6,0,0.,12.0,0.,12.0,0.,12.0,0.,12.0
1979-07-16 12:40:53.570 ,7,0,0.,12.0,0.,12.0,0.,12.0,0.,12.0
1979-07-16 12:41:05.570 ,7,0,0.,12.0,0.,12.0,0.,12.0,0.,12.0
1979-07-16 12:41:17.570 ,7,0,0.,12.0,0.,12.0,0.,12.0,0.,12.0
1979-07-16 12:41:29.570 ,7,0,0.,12.0,0.,12.0,0.,12.0,0.,12.0
1979-07-16 12:41:41.570 ,7,0,0.,12.0,0.,12.0,0.,12.0,0.,12.0
1979-07-16 12:41:53.570 ,7,0,0.,12.0,0.,12.0,0.,12.0,0.,12.0
1979-07-16 12:42:05.570 ,7,0,0.,12.0,0.,12.0,0.,12.0,0.,12.0
1979-07-16 12:42:17.570 ,7,0,0.,12.0,0.,12.0,0.,12.0,0.,12.0
1979-07-16 12:42:29.570 ,6,0,0.,12.0,0.,12.0,0.,12.0,0.,12.0
1979-07-16 12:42:41.570 ,6,0,0.,12.0,0.,12.0,0.,12.0,0.,12.0
1979-07-16 12:42:53.570 ,6,0,0.,12.0,0.,12.0,0.,12.0,0.,12.0
1979-07-16 12:43:05.570 ,6,0,0.,12.0,0.,12.0,0.,12.0,0.,12.0
1979-07-16 12:44:13.970 ,0,0,,0,,0,,0,,0
1979-07-16 12:44:25.970 ,0,0,0.,12.0,0.,12.0,0.,12.0,0.,12.0
1979-07-16 12:44:29.570 ,0,0,0.,12.0,0.,12.0,0.,12.0,0.,12.0
1979-07-16 12:44:41.570 ,0,0,0.,12.0,0.,12.0,0.,12.0,0.,12.0
1979-07-16 12:44:53.570 ,3,0,0.,12.0,0.,12.0,0.,12.0,0.,12.0
1979-07-16 12:45:05.570 ,3,0,0.,12.0,0.,12.0,0.,12.0,0.,12.0
1979-07-16 12:45:17.570 ,3,0,0.,12.0,0.,12.0,0.,12.0,0.,12.0
1979-07-16 12:45:29.570 ,3,0,0.,12.0,0.,12.0,0.,12.0,0.,12.0
1979-07-16 12:45:41.570 ,2,0,0.,12.0,0.,12.0,0.,12.0,0.,12.0
1979-07-16 12:45:53.570 ,2,0,2.,12.0,0.,12.0,0.,12.0,0.,12.0
1979-07-16 12:46:05.570 ,2,0,1.,12.0,0.,12.0,0.,12.0,0.,12.0
1979-07-16 12:46:17.570 ,2,0,0.,12.0,0.,12.0,0.,12.0,0.,12.0
1979-07-16 12:46:29.570 ,1,0,0.,12.0,0.,12.0,0.,12.0,0.,12.0
1979-07-16 12:46:41.570 ,1,0,0.,12.0,0.,12.0,0.,12.0,0.,12.0
1979-07-16 12:46:53.570 ,1,0,0.,12.0,0.,12.0,0.,12.0,0.,12.0
1979-07-16 12:47:05.570 ,1,0,0.,12.0,0.,12.0,0.,12.0,0.,12.0
1979-07-16 12:47:17.570 ,0,0,0.,12.0,0.,12.0,0.,12.0,0.,12.0
1979-07-16 12:47:29.570 ,0,0,0.,12.0,0.,12.0,0.,12.0,0.,12.0
1979-07-16 12:47:41.570 ,0,0,0.,12.0,0.,12.0,0.,12.0,0.,12.0
1979-07-16 12:47:53.570 ,0,0,0.,12.0,0.,12.0,0.,12.0,0.,12.0
1979-07-16 12:48:05.570 ,0,0,0.,12.0,0.,12.0,0.,12.0,0.,12.0
1979-07-16 12:48:17.570 ,0,0,0.,12.0,0.,12.0,0.,12.0,0.,12.0
1979-07-16 12:48:29.570 ,0,0,0.,12.0,0.,12.0,0.,12.0,0.,12.0
1979-07-16 12:48:41.570 ,0,0,0.,12.0,0.,12.0,0.,12.0,0.,12.0
1979-07-16 12:48:53.570 ,1,0,0.,12.0,0.,12.0,0.,12.0,0.,12.0
1979-07-16 12:49:05.570 ,1,0,0.,12.0,0.,12.0,0.,12.0,0.,12.0
1979-07-16 12:49:17.570 ,1,0,0.,12.0,0.,12.0,0.,12.0,0.,12.0
1979-07-16 12:49:29.570 ,1,0,0.,12.0,0.,12.0,0.,12.0,0.,12.0
1979-07-16 12:49:41.570 ,2,0,0.,12.0,0.,12.0,0.,12.0,0.,12.0
1979-07-16 12:49:53.570 ,2,0,0.,12.0,0.,12.0,0.,12.0,0.,12.0
1979-07-16 12:50:05.570 ,2,0,0.,12.0,0.,12.0,0.,12.0,0.,12.0
1979-07-16 12:50:17.570 ,2,0,1.,12.0,0.,12.0,0.,12.0,0.,12.0
1979-07-16 12:50:29.570 ,3,0,0.,12.0,0.,12.0,0.,12.0,0.,12.0
1979-07-16 12:50:41.570 ,3,0,0.,12.0,0.,12.0,0.,12.0,0.,12.0
1979-07-16 12:50:53.570 ,3,0,0.,12.0,0.,12.0,0.,12.0,0.,12.0
1979-07-16 12:51:05.570 ,3,0,0.,12.0,0.,12.0,0.,12.0,0.,12.0
1979-07-16 12:51:17.570 ,4,0,0.,12.0,0.,12.0,0.,12.0,0.,12.0
1979-07-16 12:51:29.570 ,4,0,0.,12.0,0.,12.0,0.,12.0,0.,12.0
1979-07-16 12:51:41.570 ,4,0,0.,12.0,0.,12.0,0.,12.0,0.,12.0
1979-07-16 12:51:53.570 ,4,0,0.,12.0,0.,12.0,0.,12.0,0.,12.0
1979-07-16 12:52:05.570 ,5,0,0.,12.0,0.,12.0,0.,12.0,0.,12.0
1979-07-16 12:52:17.570 ,5,0,0.,12.0,0.,12.0,0.,12.0,0.,12.0
1979-07-16 12:52:29.570 ,5,0,0.,12.0,0.,12.0,0.,12.0,0.,12.0
1979-07-16 12:52:41.570 ,5,0,0.,12.0,0.,12.0,0.,12.0,0.,12.0
1979-07-16 12:52:53.570 ,6,0,0.,12.0,0.,12.0,0.,12.0,0.,12.0
1979-07-16 12:53:05.570 ,6,0,0.,12.0,0.,12.0,0.,12.0,0.,12.0
1979-07-16 12:53:17.570 ,6,0,0.,12.0,0.,12.0,0.,12.0,0.,12.0
1979-07-16 12:53:29.570 ,6,0,0.,12.0,0.,12.0,0.,12.0,0.,12.0
1979-07-16 12:53:41.570 ,7,0,0.,12.0,0.,12.0,0.,12.0,0.,12.0
1979-07-16 12:53:53.570 ,7,0,0.,12.0,0.,12.0,0.,12.0,0.,12.0
1979-07-16 12:54:05.570 ,7,0,0.,12.0,0.,12.0,0.,12.0,0.,12.0
1979-07-16 12:54:17.570 ,7,0,0.,12.0,0.,12.0,0.,12.0,0.,12.0
1979-07-16 12:54:29.570 ,7,0,0.,12.0,0.,12.0,0.,12.0,0.,12.0
1979-07-16 12:54:41.570 ,7,0,0.,12.0,0.,12.0,0.,12.0,0.,12.0
1979-07-16 12:54:53.570 ,7,0,0.,12.0,0.,12.0,0.,12.0,0.,12.0
1979-07-16 12:55:05.570 ,7,0,0.,12.0,0.,12.0,0.,12.0,0.,12.0
1979-07-16 12:55:17.570 ,6,0,0.,12.0,0.,12.0,0.,12.0,0.,12.0
1979-07-16 12:55:29.570 ,6,0,0.,12.0,0.,12.0,0.,12.0,0.,12.0
1979-07-16 12:55:41.570 ,6,0,0.,12.0,0.,12.0,0.,12.0,0.,12.0
1979-07-16 12:55:53.570 ,6,0,0.,12.0,0.,12.0,0.,12.0,0.,12.0
1979-07-16 12:56:05.570 ,5,0,0.,12.0,0.,12.0,0.,12.0,0.,12.0
1979-07-16 12:56:17.570 ,5,0,0.,12.0,0.,12.0,0.,12.0,0.,12.0
1979-07-16 12:56:29.570 ,5,0,0.,12.0,0.,12.0,0.,12.0,0.,12.0
1979-07-16 12:56:41.570 ,5,0,0.,12.0,0.,12.0,0.,12.0,0.,12.0
1979-07-16 12:56:53.570 ,4,0,0.,12.0,0.,12.0,0.,12.0,0.,12.0
1979-07-16 12:57:05.570 ,4,0,0.,12.0,0.,12.0,0.,12.0,0.,12.0
1979-07-16 12:57:17.570 ,4,0,0.,12.0,0.,12.0,0.,12.0,0.,12.0
1979-07-16 12:57:29.570 ,4,0,0.,12.0,0.,12.0,0.,12.0,0.,12.0
1979-07-16 12:57:41.570 ,3,0,0.,12.0,0.,12.0,0.,12.0,0.,12.0
1979-07-16 12:57:53.570 ,3,0,0.,12.0,0.,12.0,0.,12.0,0.,12.0
1979-07-16 12:58:05.570 ,3,0,0.,12.0,0.,12.0,0.,12.0,0.,12.0
1979-07-16 12:58:17.570 ,3,0,0.,12.0,0.,12.0,0.,12.0,0.,12.0
1979-07-16 12:58:29.570 ,2,0,0.,12.0,0.,12.0,0.,12.0,0.,12.0
1979-07-16 12:58:41.570 ,2,0,0.,12.0,0.,12.0,0.,12.0,0.,12.0
1979-07-16 12:58:53.570 ,2,0,0.,12.0,0.,12.0,0.,12.0,0.,12.0
1979-07-16 12:59:05.570 ,2,0,0.,12.0,0.,12.0,0.,12.0,0.,12.0
1979-07-16 12:59:17.570 ,1,0,0.,12.0,0.,12.0,0.,12.0,0.,12.0
1979-07-16 12:59:29.570 ,1,0,0.,12.0,0.,12.0,0.,12.0,0.,12.0
1979-07-16 12:59:41.570 ,1,0,0.,12.0,0.,12.0,0.,12.0,0.,12.0
1979-07-16 12:59:53.570 ,1,0,0.,12.0,0.,12.0,0.,12.0,0.,12.0
1979-07-16 13:00:05.570 ,0,0,0.,12.0,0.,12.0,0.,12.0,0.,12.0
1979-07-16 13:00:17.570 ,0,0,0.,12.0,0.,12.0,0.,12.0,0.,12.0
1979-07-16 13:00:29.570 ,0,0,1.,12.0,0.,12.0,0.,12.0,0.,12.0
1979-07-16 13:00:41.570 ,0,0,0.,12.0,0.,12.0,0.,12.0,0.,12.0
1979-07-16 13:00:53.570 ,0,0,0.,12.0,0.,12.0,0.,12.0,0.,12.0
1979-07-16 13:01:05.570 ,0,0,0.,12.0,0.,12.0,0.,12.0,0.,12.0
1979-07-16 13:01:17.570 ,0,0,0.,12.0,0.,12.0,0.,12.0,0.,12.0
1979-07-16 13:01:29.570 ,0,0,0.,12.0,0.,12.0,0.,12.0,0.,12.0
1979-07-16 13:01:41.570 ,1,0,0.,12.0,0.,12.0,0.,12.0,0.,12.0
1979-07-16 13:01:53.570 ,1,0,0.,12.0,0.,12.0,0.,12.0,0.,12.0
1979-07-16 13:02:05.570 ,1,0,0.,12.0,0.,12.0,0.,12.0,0.,12.0
1979-07-16 13:02:17.570 ,1,0,0.,12.0,0.,12.0,0.,12.0,0.,12.0
1979-07-16 13:02:29.570 ,2,0,0.,12.0,0.,12.0,0.,12.0,0.,12.0
1979-07-16 13:02:41.570 ,2,0,1.,12.0,0.,12.0,0.,12.0,0.,12.0
1979-07-16 13:02:53.570 ,2,0,0.,12.0,0.,12.0,0.,12.0,0.,12.0
1979-07-16 13:03:05.570 ,2,0,1.,12.0,0.,12.0,0.,12.0,0.,12.0
1979-07-16 13:03:17.570 ,3,1,0.,12.0,0.,12.0,0.,12.0,0.,12.0
1979-07-16 13:03:29.570 ,3,1,,0,,0,,0,,0
1979-07-16 13:03:41.570 ,3,0,0.,12.0,0.,12.0,0.,12.0,0.,12.0
1979-07-16 13:03:53.570 ,3,0,0.,12.0,0.,12.0,0.,12.0,0.,12.0
1979-07-16 13:04:05.570 ,4,0,0.,12.0,0.,12.0,0.,12.0,0.,12.0
1979-07-16 13:04:17.570 ,4,0,0.,12.0,0.,12.0,0.,12.0,0.,12.0
1979-07-16 13:04:29.570 ,4,0,0.,12.0,0.,12.0,0.,12.0,0.,12.0
1979-07-16 13:04:41.570 ,4,0,0.,12.0,0.,12.0,0.,12.0,0.,12.0
1979-07-16 13:04:53.570 ,5,0,0.,12.0,0.,12.0,0.,12.0,0.,12.0
1979-07-16 13:05:05.570 ,5,0,0.,12.0,0.,12.0,0.,12.0,0.,12.0
1979-07-16 13:05:17.570 ,5,0,0.,12.0,0.,12.0,0.,12.0,0.,12.0
1979-07-16 13:05:29.570 ,5,0,0.,12.0,0.,12.0,0.,12.0,0.,12.0
1979-07-16 13:05:41.570 ,6,0,0.,12.0,0.,12.0,0.,12.0,0.,12.0
1979-07-16 13:05:53.570 ,6,0,0.,12.0,0.,12.0,0.,12.0,0.,12.0
1979-07-16 13:06:05.570 ,6,0,0.,12.0,0.,12.0,0.,12.0,0.,12.0
1979-07-16 13:06:17.570 ,6,0,0.,12.0,0.,12.0,0.,12.0,0.,12.0
1979-07-16 13:06:29.570 ,7,0,0.,12.0,0.,12.0,0.,12.0,0.,12.0
1979-07-16 13:06:41.570 ,7,0,0.,12.0,0.,12.0,0.,12.0,0.,12.0
1979-07-16 13:06:53.570 ,7,0,0.,12.0,0.,12.0,0.,12.0,0.,12.0
1979-07-16 13:07:05.570 ,7,0,0.,12.0,0.,12.0,0.,12.0,0.,12.0
1979-07-16 13:07:17.570 ,3,1,0.,12.0,0.,12.0,0.,12.0,0.,12.0
1979-07-16 13:07:29.570 ,3,1,0.,12.0,0.,12.0,0.,12.0,0.,12.0
1979-07-16 13:07:41.570 ,0,1,0.,12.0,0.,12.0,0.,12.0,0.,12.0
1979-07-16 13:07:53.570 ,0,1,0.,12.0,0.,12.0,0.,12.0,0.,12.0
1979-07-16 13:08:05.570 ,4,1,0.,12.0,0.,12.0,0.,12.0,0.,12.0
1979-07-16 13:08:17.570 ,4,1,0.,12.0,0.,12.0,0.,12.0,0.,12.0
1979-07-16 13:08:29.570 ,7,1,0.,12.0,0.,12.0,0.,12.0,0.,12.0
1979-07-16 13:08:41.570 ,7,1,0.,12.0,0.,12.0,0.,12.0,0.,12.0
1979-07-16 13:08:53.570 ,3,1,0.,12.0,0.,12.0,0.,12.0,0.,12.0
1979-07-16 13:09:05.570 ,3,1,0.,12.0,0.,12.0,0.,12.0,0.,12.0
1979-07-16 13:09:17.570 ,0,1,0.,12.0,0.,12.0,0.,12.0,0.,12.0
1979-07-16 13:09:29.570 ,0,1,0.,12.0,0.,12.0,0.,12.0,0.,12.0
1979-07-16 13:09:41.570 ,4,1,0.,12.0,0.,12.0,0.,12.0,0.,12.0
1979-07-16 13:09:53.570 ,4,1,0.,12.0,0.,12.0,0.,12.0,0.,12.0
1979-07-16 13:10:05.570 ,7,1,0.,12.0,0.,12.0,0.,12.0,0.,12.0
1979-07-16 13:10:17.570 ,7,1,0.,12.0,0.,12.0,0.,12.0,0.,12.0
1979-07-16 13:10:29.570 ,3,1,0.,12.0,0.,12.0,0.,12.0,0.,12.0
1979-07-16 13:10:41.570 ,3,1,0.,12.0,0.,12.0,0.,12.0,0.,12.0
1979-07-16 13:10:53.570 ,0,1,0.,12.0,0.,12.0,0.,12.0,0.,12.0
1979-07-16 13:11:05.570 ,0,1,1.,12.0,0.,12.0,0.,12.0,0.,12.0
1979-07-16 13:11:17.570 ,4,1,0.,12.0,0.,12.0,0.,12.0,0.,12.0
1979-07-16 13:11:29.570 ,4,1,0.,12.0,0.,12.0,0.,12.0,0.,12.0
1979-07-16 13:11:41.570 ,7,1,0.,12.0,0.,12.0,0.,12.0,0.,12.0
1979-07-16 13:11:53.570 ,7,1,0.,12.0,0.,12.0,0.,12.0,0.,12.0
1979-07-16 13:12:05.570 ,3,1,0.,12.0,0.,12.0,0.,12.0,0.,12.0
1979-07-16 13:12:17.570 ,3,1,0.,12.0,0.,12.0,0.,12.0,0.,12.0
1979-07-16 13:12:29.570 ,0,1,0.,12.0,0.,12.0,0.,12.0,0.,12.0
1979-07-16 13:12:41.570 ,0,1,1.,12.0,0.,12.0,0.,12.0,0.,12.0
1979-07-16 13:12:53.570 ,4,1,0.,12.0,0.,12.0,0.,12.0,0.,12.0
1979-07-16 13:13:05.570 ,4,1,0.,12.0,0.,12.0,0.,12.0,0.,12.0
1979-07-16 13:13:17.570 ,7,1,0.,12.0,0.,12.0,0.,12.0,0.,12.0
1979-07-16 13:13:29.570 ,7,1,0.,12.0,0.,12.0,0.,12.0,0.,12.0
1979-07-16 13:13:41.570 ,3,1,0.,12.0,0.,12.0,0.,12.0,0.,12.0
1979-07-16 13:13:53.570 ,3,1,0.,12.0,0.,12.0,0.,12.0,0.,12.0
1979-07-16 13:14:05.570 ,0,1,0.,12.0,0.,12.0,0.,12.0,0.,12.0
1979-07-16 13:14:17.570 ,0,1,1.,12.0,0.,12.0,0.,12.0,0.,12.0
1979-07-16 13:14:29.570 ,4,1,0.,12.0,0.,12.0,0.,12.0,0.,12.0
1979-07-16 13:14:41.570 ,4,1,0.,12.0,0.,12.0,0.,12.0,0.,12.0
1979-07-16 13:14:53.570 ,7,1,0.,12.0,0.,12.0,0.,12.0,0.,12.0
1979-07-16 13:15:05.570 ,7,1,0.,12.0,0.,12.0,0.,12.0,0.,12.0
1979-07-16 13:15:17.570 ,3,1,0.,12.0,0.,12.0,0.,12.0,0.,12.0
1979-07-16 13:15:29.570 ,3,1,0.,12.0,0.,12.0,0.,12.0,0.,12.0
1979-07-16 13:15:41.570 ,0,1,0.,12.0,0.,12.0,0.,12.0,0.,12.0
1979-07-16 13:15:53.570 ,0,1,0.,12.0,0.,12.0,0.,12.0,0.,12.0
1979-07-16 13:16:05.570 ,4,1,0.,12.0,0.,12.0,0.,12.0,0.,12.0
1979-07-16 13:16:17.570 ,4,1,0.,12.0,0.,12.0,0.,12.0,0.,12.0
1979-07-16 13:16:29.570 ,7,1,0.,12.0,0.,12.0,0.,12.0,0.,12.0
1979-07-16 13:16:41.570 ,7,1,0.,12.0,0.,12.0,0.,12.0,0.,12.0
1979-07-16 13:16:53.570 ,3,1,0.,12.0,0.,12.0,0.,12.0,0.,12.0
1979-07-16 13:17:05.570 ,3,1,0.,12.0,0.,12.0,0.,12.0,0.,12.0
1979-07-16 13:17:17.570 ,0,1,0.,12.0,0.,12.0,0.,12.0,0.,12.0
1979-07-16 13:17:29.570 ,0,1,0.,12.0,0.,12.0,0.,12.0,0.,12.0
1979-07-16 13:17:41.570 ,0,0,0.,12.0,0.,12.0,0.,12.0,0.,12.0
1979-07-16 13:17:53.570 ,0,0,1.,12.0,0.,12.0,0.,12.0,0.,12.0
1979-07-16 13:18:05.570 ,0,0,0.,12.0,0.,12.0,0.,12.0,0.,12.0
1979-07-16 13:18:17.570 ,0,0,0.,12.0,0.,12.0,0.,12.0,0.,12.0
1979-07-16 13:18:29.570 ,5,0,0.,12.0,0.,12.0,0.,12.0,0.,12.0
1979-07-16 13:18:41.570 ,5,0,0.,12.0,0.,12.0,0.,12.0,0.,12.0
1979-07-16 13:18:53.570 ,5,0,0.,12.0,0.,12.0,0.,12.0,0.,12.0
1979-07-16 13:19:05.570 ,5,0,0.,12.0,0.,12.0,0.,12.0,0.,12.0
1979-07-16 13:19:17.570 ,4,0,1.,12.0,0.,12.0,0.,12.0,0.,12.0
1979-07-16 13:19:29.570 ,4,0,0.,12.0,0.,12.0,0.,12.0,0.,12.0
1979-07-16 13:19:41.570 ,4,0,0.,12.0,0.,12.0,0.,12.0,0.,12.0
1979-07-16 13:19:53.570 ,4,0,0.,12.0,0.,12.0,0.,12.0,0.,12.0
1979-07-16 13:20:05.570 ,3,0,0.,12.0,0.,12.0,0.,12.0,0.,12.0
1979-07-16 13:20:17.570 ,3,0,0.,12.0,0.,12.0,0.,12.0,0.,12.0
1979-07-16 13:20:29.570 ,3,0,0.,12.0,0.,12.0,0.,12.0,0.,12.0
1979-07-16 13:20:41.570 ,3,0,0.,12.0,0.,12.0,0.,12.0,0.,12.0
1979-07-16 13:20:53.570 ,2,0,0.,12.0,0.,12.0,0.,12.0,0.,12.0
1979-07-16 13:21:05.570 ,2,0,0.,12.0,0.,12.0,0.,12.0,0.,12.0
1979-07-16 13:21:17.570 ,2,0,1.,12.0,0.,12.0,0.,12.0,0.,12.0
1979-07-16 13:21:29.570 ,2,0,0.,12.0,0.,12.0,0.,12.0,0.,12.0
1979-07-16 13:21:41.570 ,1,0,0.,12.0,0.,12.0,0.,12.0,0.,12.0